Location: ČR
(50.0000°N, 15.0000°E)
Time: 15:11:07
(UTC+01:00)

Courier 1B - Pass Details

Date: 15 February 2026
Orbit: 962 x 1208 km, 28.3° (Epoch: 16 March)

Event Time Altitude Azimuth Distance (km) Brightness Sun altitude
Rises 22:36:44 0° 232° (SW) 4,053 - -47.5°
Reaches altitude 10° 22:41:18 10° 208° (SSW) 3,121 - -47.9°
Maximum altitude 22:44:48 14° 181° (S) 2,862 - -48.2°
Drops below altitude 10° 22:48:20 10° 154° (SSE) 3,139 - -48.5°
Sets 22:52:57 0° 130° (SE) 4,096 - -48.9°
